| time (UTC) | temp C | wind direction | speed KPH | gust KPH | rain 1hr cm | rain 24hr cm | rain mn cm | humidity % | barometer mb |
| 20260510081556 | 11 | 0 | 0.0 | 0.0 | 0.00 | 0.00 | 0.00 | 89 | 1012.4 |
| 20260510081020 | 11 | 0 | 0.0 | 0.0 | 0.00 | 0.00 | 0.00 | 89 | 1012.4 |
| 20260510080518 | 11 | 0 | 0.0 | 0.0 | 0.00 | 0.00 | 0.00 | 89 | 1012.3 |
| 20260510080043 | 11 | 0 | 0.0 | 0.0 | 0.00 | 0.00 | 0.00 | 89 | 1012.2 |
| 20260510075517 | 11 | 0 | 0.0 | 0.0 | 0.00 | 0.00 | 0.00 | 89 | 1012.2 |
| 20260510075020 | 12 | 0 | 0.0 | 1.6 | 0.00 | 0.00 | 0.00 | 89 | 1012.2 |
| 20260510074541 | 12 | 0 | 0.0 | 1.6 | 0.00 | 0.00 | 0.00 | 89 | 1012.1 |
| 20260510074021 | 12 | 215 | 0.0 | 1.6 | 0.00 | 0.00 | 0.00 | 89 | 1012.0 |
| 20260510073520 | 12 | 0 | 0.0 | 1.6 | 0.00 | 0.00 | 0.00 | 89 | 1012.0 |
| 20260510073048 | 12 | 0 | 0.0 | 1.6 | 0.00 | 0.00 | 0.00 | 89 | 1012.1 |
| 20260510072518 | 12 | 0 | 0.0 | 1.6 | 0.00 | 0.00 | 0.00 | 89 | 1012.0 |
| 20260510072021 | 12 | 0 | 0.0 | 1.6 | 0.00 | 0.00 | 0.00 | 88 | 1012.1 |
| 20260510071537 | 12 | 0 | 0.0 | 3.2 | 0.00 | 0.00 | 0.00 | 88 | 1012.1 |
| 20260510071020 | 12 | 0 | 0.0 | 3.2 | 0.00 | 0.00 | 0.00 | 88 | 1012.2 |
| 20260510070520 | 12 | 0 | 0.0 | 3.2 | 0.00 | 0.00 | 0.00 | 88 | 1012.2 |
| 20260510070047 | 12 | 0 | 0.0 | 0.0 | 0.00 | 0.00 | 0.00 | 88 | 1012.2 |
| 20260510065518 | 13 | 0 | 0.0 | 0.0 | 0.00 | 0.00 | 0.00 | 88 | 1012.1 |
| 20260510065023 | 13 | 0 | 0.0 | 0.0 | 0.00 | 0.00 | 0.00 | 88 | 1012.0 |
| 20260510064544 | 13 | 0 | 0.0 | 1.6 | 0.00 | 0.00 | 0.00 | 87 | 1012.0 |
| 20260510064020 | 13 | 0 | 0.0 | 3.2 | 0.00 | 0.00 | 0.00 | 88 | 1012.1 |
| 20260510063517 | 13 | 0 | 0.0 | 3.2 | 0.00 | 0.00 | 0.00 | 87 | 1012.1 |
| 20260510063042 | 13 | 0 | 0.0 | 1.6 | 0.00 | 0.00 | 0.00 | 87 | 1012.0 |
| 20260510062520 | 13 | 0 | 0.0 | 1.6 | 0.00 | 0.00 | 0.00 | 87 | 1012.1 |
| 20260510062020 | 13 | 0 | 0.0 | 1.6 | 0.00 | 0.00 | 0.00 | 87 | 1012.1 |
| 20260510061552 | 13 | 0 | 0.0 | 1.6 | 0.00 | 0.00 | 0.00 | 87 | 1012.0 |
| 20260510061019 | 13 | 0 | 0.0 | 1.6 | 0.00 | 0.00 | 0.00 | 87 | 1012.0 |
| 20260510060519 | 13 | 217 | 0.0 | 1.6 | 0.00 | 0.00 | 0.00 | 86 | 1012.0 |
| 20260510060043 | 13 | 0 | 0.0 | 3.2 | 0.00 | 0.00 | 0.00 | 86 | 1012.0 |
| 20260510055520 | 13 | 0 | 0.0 | 3.2 | 0.00 | 0.00 | 0.00 | 85 | 1012.1 |
| 20260510055018 | 13 | 0 | 0.0 | 3.2 | 0.00 | 0.00 | 0.00 | 84 | 1012.1 |
| 20260510054536 | 13 | 0 | 0.0 | 8.0 | 0.00 | 0.00 | 0.00 | 84 | 1012.1 |
| 20260510054021 | 14 | 9 | 0.0 | 8.0 | 0.00 | 0.00 | 0.00 | 83 | 1012.1 |
| 20260510053520 | 14 | 0 | 0.0 | 6.4 | 0.00 | 0.00 | 0.00 | 83 | 1012.2 |
| 20260510053053 | 14 | 0 | 0.0 | 0.0 | 0.00 | 0.00 | 0.00 | 83 | 1011.9 |
| 20260510052518 | 14 | 0 | 0.0 | 0.0 | 0.00 | 0.00 | 0.00 | 83 | 1011.8 |
| 20260510052019 | 14 | 0 | 0.0 | 0.0 | 0.00 | 0.00 | 0.00 | 83 | 1011.9 |
| 20260510051543 | 15 | 0 | 0.0 | 0.0 | 0.00 | 0.00 | 0.00 | 83 | 1011.9 |
| 20260510051018 | 15 | 0 | 0.0 | 0.0 | 0.00 | 0.00 | 0.00 | 83 | 1012.0 |
| 20260510050519 | 15 | 0 | 0.0 | 1.6 | 0.00 | 0.00 | 0.00 | 83 | 1011.9 |
| 20260510050040 | 15 | 0 | 0.0 | 3.2 | 0.00 | 0.00 | 0.00 | 83 | 1011.8 |
| 20260510045521 | 15 | 0 | 0.0 | 4.8 | 0.00 | 0.00 | 0.00 | 83 | 1011.7 |
| 20260510045021 | 15 | 255 | 0.0 | 4.8 | 0.00 | 0.00 | 0.00 | 83 | 1011.8 |
| 20260510044542 | 15 | 0 | 0.0 | 3.2 | 0.00 | 0.00 | 0.00 | 82 | 1011.9 |
| 20260510044017 | 15 | 0 | 0.0 | 3.2 | 0.00 | 0.00 | 0.00 | 82 | 1011.9 |
| 20260510043520 | 15 | 0 | 0.0 | 3.2 | 0.00 | 0.00 | 0.00 | 82 | 1011.9 |
| 20260510043037 | 15 | 0 | 0.0 | 4.8 | 0.00 | 0.00 | 0.00 | 81 | 1011.9 |
| 20260510042518 | 15 | 0 | 0.0 | 4.8 | 0.00 | 0.00 | 0.00 | 82 | 1011.9 |
| 20260510042018 | 15 | 0 | 0.0 | 4.8 | 0.00 | 0.00 | 0.00 | 81 | 1011.9 |
| 20260510041539 | 15 | 0 | 0.0 | 4.8 | 0.00 | 0.00 | 0.00 | 81 | 1011.8 |
| 20260510041020 | 15 | 223 | 0.0 | 3.2 | 0.00 | 0.00 | 0.00 | 81 | 1011.8 |
| 20260510040520 | 15 | 138 | 0.0 | 3.2 | 0.00 | 0.00 | 0.00 | 81 | 1011.7 |
| 20260510040048 | 15 | 0 | 0.0 | 1.6 | 0.00 | 0.00 | 0.00 | 81 | 1011.8 |
| 20260510035521 | 15 | 232 | 0.0 | 1.6 | 0.00 | 0.00 | 0.00 | 81 | 1011.8 |
| 20260510035018 | 15 | 0 | 0.0 | 1.6 | 0.00 | 0.00 | 0.00 | 81 | 1011.8 |
| 20260510034543 | 15 | 0 | 0.0 | 1.6 | 0.00 | 0.00 | 0.00 | 81 | 1011.6 |
| 20260510034019 | 15 | 0 | 0.0 | 1.6 | 0.00 | 0.00 | 0.00 | 80 | 1011.7 |
| 20260510033521 | 15 | 0 | 0.0 | 1.6 | 0.00 | 0.00 | 0.00 | 80 | 1011.6 |
| 20260510033040 | 15 | 0 | 0.0 | 1.6 | 0.00 | 0.00 | 0.00 | 80 | 1011.6 |
| 20260510032517 | 15 | 178 | 0.0 | 1.6 | 0.00 | 0.00 | 0.00 | 80 | 1011.5 |
| 20260510032019 | 15 | 0 | 0.0 | 1.6 | 0.00 | 0.00 | 0.00 | 79 | 1011.5 |
| 20260510031555 | 15 | 0 | 0.0 | 1.6 | 0.00 | 0.00 | 0.00 | 79 | 1011.5 |
| 20260510031020 | 15 | 0 | 0.0 | 1.6 | 0.00 | 0.00 | 0.00 | 79 | 1011.6 |
| 20260510030518 | 15 | 0 | 0.0 | 1.6 | 0.00 | 0.00 | 0.00 | 79 | 1011.4 |
| 20260510030038 | 15 | 0 | 0.0 | 3.2 | 0.00 | 0.00 | 0.00 | 79 | 1011.5 |
| 20260510025520 | 15 | 0 | 0.0 | 3.2 | 0.00 | 0.00 | 0.00 | 79 | 1011.4 |
| 20260510025020 | 15 | 245 | 0.0 | 3.2 | 0.00 | 0.00 | 0.00 | 79 | 1011.4 |
| 20260510024537 | 15 | 0 | 0.0 | 0.0 | 0.00 | 0.00 | 0.00 | 78 | 1011.3 |
| 20260510024020 | 15 | 0 | 0.0 | 0.0 | 0.00 | 0.00 | 0.00 | 78 | 1011.3 |
| 20260510023520 | 16 | 0 | 0.0 | 0.0 | 0.00 | 0.00 | 0.00 | 77 | 1011.2 |
| 20260510023044 | 16 | 0 | 0.0 | 0.0 | 0.00 | 0.00 | 0.00 | 77 | 1011.2 |
| 20260510022518 | 16 | 0 | 0.0 | 0.0 | 0.00 | 0.00 | 0.00 | 76 | 1011.2 |
| 20260510022022 | 16 | 0 | 0.0 | 0.0 | 0.00 | 0.00 | 0.00 | 75 | 1011.0 |
| 20260510021540 | 16 | 0 | 0.0 | 0.0 | 0.00 | 0.00 | 0.00 | 75 | 1010.9 |
| 20260510021017 | 16 | 0 | 0.0 | 0.0 | 0.00 | 0.00 | 0.00 | 74 | 1010.8 |
| 20260510020518 | 16 | 0 | 0.0 | 0.0 | 0.00 | 0.00 | 0.00 | 74 | 1010.8 |
| 20260510020037 | 16 | 0 | 0.0 | 0.0 | 0.00 | 0.00 | 0.00 | 73 | 1010.8 |
| 20260510015520 | 16 | 0 | 0.0 | 0.0 | 0.00 | 0.00 | 0.00 | 73 | 1010.6 |
| 20260510015019 | 16 | 0 | 0.0 | 0.0 | 0.00 | 0.00 | 0.00 | 73 | 1010.4 |
| 20260510014545 | 17 | 0 | 0.0 | 0.0 | 0.00 | 0.00 | 0.00 | 72 | 1010.4 |
| 20260510014017 | 17 | 0 | 0.0 | 0.0 | 0.00 | 0.00 | 0.00 | 72 | 1010.3 |
| 20260510013519 | 17 | 0 | 0.0 | 0.0 | 0.00 | 0.00 | 0.00 | 71 | 1010.3 |
| 20260510013045 | 17 | 0 | 0.0 | 0.0 | 0.00 | 0.00 | 0.00 | 71 | 1010.2 |
| 20260510012521 | 17 | 0 | 0.0 | 0.0 | 0.00 | 0.00 | 0.00 | 69 | 1010.2 |
| 20260510012018 | 17 | 0 | 0.0 | 0.0 | 0.00 | 0.00 | 0.00 | 69 | 1010.2 |
| 20260510011544 | 18 | 0 | 0.0 | 3.2 | 0.00 | 0.00 | 0.00 | 68 | 1010.1 |
| 20260510011020 | 18 | 0 | 0.0 | 3.2 | 0.00 | 0.00 | 0.00 | 69 | 1010.0 |
| 20260510010520 | 18 | 0 | 0.0 | 3.2 | 0.00 | 0.00 | 0.00 | 69 | 1009.9 |
| 20260510010040 | 18 | 0 | 0.0 | 3.2 | 0.00 | 0.00 | 0.00 | 68 | 1009.9 |
| 20260510005520 | 18 | 0 | 0.0 | 3.2 | 0.00 | 0.00 | 0.00 | 67 | 1009.7 |
| 20260510005020 | 18 | 0 | 0.0 | 1.6 | 0.00 | 0.00 | 0.00 | 67 | 1009.7 |
| 20260510004542 | 19 | 0 | 0.0 | 0.0 | 0.00 | 0.00 | 0.00 | 66 | 1009.6 |
| 20260510004018 | 19 | 0 | 0.0 | 0.0 | 0.00 | 0.00 | 0.00 | 65 | 1009.6 |
| 20260510003518 | 20 | 0 | 0.0 | 1.6 | 0.00 | 0.00 | 0.00 | 64 | 1009.6 |
| 20260510003041 | 20 | 0 | 0.0 | 1.6 | 0.00 | 0.00 | 0.00 | 64 | 1009.6 |
| 20260510002519 | 20 | 0 | 0.0 | 1.6 | 0.00 | 0.00 | 0.00 | 63 | 1009.5 |
| 20260510002019 | 20 | 0 | 0.0 | 1.6 | 0.00 | 0.00 | 0.00 | 62 | 1009.5 |
| 20260510001538 | 20 | 0 | 0.0 | 1.6 | 0.00 | 0.00 | 0.00 | 61 | 1009.4 |
| 20260510001020 | 21 | 0 | 0.0 | 1.6 | 0.00 | 0.00 | 0.00 | 60 | 1009.4 |
| 20260510000519 | 21 | 0 | 0.0 | 1.6 | 0.00 | 0.00 | 0.00 | 60 | 1009.3 |
| 20260510000048 | 21 | 0 | 0.0 | 1.6 | 0.00 | 0.00 | 0.00 | 59 | 1009.3 |
| 20260509235517 | 21 | 0 | 0.0 | 1.6 | 0.00 | 0.00 | 0.00 | 59 | 1009.2 |
| 20260509235019 | 22 | 0 | 0.0 | 1.6 | 0.00 | 0.00 | 0.00 | 58 | 1009.3 |
| 20260509234539 | 22 | 0 | 0.0 | 0.0 | 0.00 | 0.00 | 0.00 | 57 | 1009.2 |
| 20260509234020 | 22 | 0 | 0.0 | 3.2 | 0.00 | 0.00 | 0.00 | 57 | 1009.2 |
| 20260509233519 | 22 | 0 | 0.0 | 3.2 | 0.00 | 0.00 | 0.00 | 55 | 1009.1 |
| 20260509233041 | 22 | 242 | 0.0 | 3.2 | 0.00 | 0.00 | 0.00 | 55 | 1009.1 |
| 20260509232522 | 22 | 208 | 0.0 | 3.2 | 0.00 | 0.00 | 0.00 | 54 | 1009.2 |
| 20260509232019 | 22 | 222 | 0.0 | 4.8 | 0.00 | 0.00 | 0.00 | 54 | 1009.1 |
| 20260509231538 | 22 | 0 | 0.0 | 4.8 | 0.00 | 0.00 | 0.00 | 54 | 1009.1 |
| 20260509231020 | 23 | 0 | 0.0 | 3.2 | 0.00 | 0.00 | 0.00 | 53 | 1009.1 |
| 20260509230520 | 23 | 0 | 0.0 | 3.2 | 0.00 | 0.00 | 0.00 | 52 | 1009.1 |
| 20260509230042 | 23 | 0 | 0.0 | 8.0 | 0.00 | 0.00 | 0.00 | 51 | 1009.1 |
| 20260509225521 | 23 | 0 | 0.0 | 8.0 | 0.00 | 0.00 | 0.00 | 51 | 1009.1 |
| 20260509225018 | 23 | 227 | 1.6 | 11.3 | 0.00 | 0.00 | 0.00 | 51 | 1009.1 |
| 20260509224539 | 23 | 261 | 1.6 | 11.3 | 0.00 | 0.00 | 0.00 | 51 | 1009.1 |
| 20260509224019 | 23 | 159 | 3.2 | 9.7 | 0.00 | 0.00 | 0.00 | 51 | 1009.2 |
| 20260509223524 | 23 | 219 | 1.6 | 9.7 | 0.00 | 0.00 | 0.00 | 50 | 1009.2 |
| 20260509223042 | 23 | 241 | 0.0 | 4.8 | 0.00 | 0.00 | 0.00 | 50 | 1009.1 |
| 20260509222520 | 23 | 0 | 0.0 | 4.8 | 0.00 | 0.00 | 0.00 | 50 | 1009.0 |
| 20260509222020 | 23 | 321 | 0.0 | 12.9 | 0.00 | 0.00 | 0.00 | 49 | 1009.0 |
| 20260509221536 | 24 | 0 | 1.6 | 12.9 | 0.00 | 0.00 | 0.00 | 49 | 1009.0 |
| 20260509221017 | 24 | 202 | 3.2 | 12.9 | 0.00 | 0.00 | 0.00 | 49 | 1009.1 |
| 20260509220517 | 24 | 251 | 3.2 | 12.9 | 0.00 | 0.00 | 0.00 | 49 | 1009.1 |
| 20260509220045 | 24 | 163 | 1.6 | 16.1 | 0.00 | 0.00 | 0.00 | 49 | 1009.0 |
| 20260509215521 | 24 | 188 | 8.0 | 16.1 | 0.00 | 0.00 | 0.00 | 49 | 1009.1 |
| 20260509215019 | 23 | 234 | 1.6 | 8.0 | 0.00 | 0.00 | 0.00 | 49 | 1008.9 |
| 20260509214542 | 23 | 270 | 1.6 | 9.7 | 0.00 | 0.00 | 0.00 | 50 | 1009.0 |
| 20260509214024 | 23 | 212 | 3.2 | 12.9 | 0.00 | 0.00 | 0.00 | 49 | 1009.0 |
| 20260509213518 | 23 | 195 | 3.2 | 12.9 | 0.00 | 0.00 | 0.00 | 49 | 1009.0 |
| 20260509213041 | 23 | 276 | 3.2 | 12.9 | 0.00 | 0.00 | 0.00 | 49 | 1009.0 |
| 20260509212518 | 24 | 207 | 3.2 | 11.3 | 0.00 | 0.00 | 0.00 | 48 | 1009.0 |
| 20260509212023 | 25 | 165 | 3.2 | 11.3 | 0.00 | 0.00 | 0.00 | 47 | 1009.1 |
| 20260509211546 | 25 | 261 | 4.8 | 12.9 | 0.00 | 0.00 | 0.00 | 47 | 1009.1 |
| 20260509211021 | 25 | 232 | 3.2 | 12.9 | 0.00 | 0.00 | 0.00 | 48 | 1009.0 |
| 20260509210518 | 25 | 247 | 3.2 | 8.0 | 0.00 | 0.00 | 0.00 | 47 | 1009.0 |
| 20260509210041 | 25 | 294 | 3.2 | 9.7 | 0.00 | 0.00 | 0.00 | 50 | 1009.0 |
| 20260509205519 | 24 | 344 | 1.6 | 14.5 | 0.00 | 0.00 | 0.00 | 48 | 1009.0 |
| 20260509205017 | 25 | 141 | 1.6 | 14.5 | 0.00 | 0.00 | 0.00 | 47 | 1008.9 |
| 20260509204552 | 25 | 110 | 6.4 | 14.5 | 0.00 | 0.00 | 0.00 | 46 | 1008.9 |
| 20260509204020 | 25 | 174 | 4.8 | 14.5 | 0.00 | 0.00 | 0.00 | 48 | 1008.9 |
| 20260509203521 | 25 | 279 | 3.2 | 14.5 | 0.00 | 0.00 | 0.00 | 48 | 1008.9 |
| 20260509203044 | 26 | 317 | 3.2 | 14.5 | 0.00 | 0.00 | 0.00 | 45 | 1008.8 |
| 20260509202520 | 26 | 213 | 3.2 | 12.9 | 0.00 | 0.00 | 0.00 | 47 | 1008.7 |
| 20260509202021 | 25 | 299 | 1.6 | 6.4 | 0.00 | 0.00 | 0.00 | 47 | 1008.6 |
| 20260509201542 | 25 | 291 | 1.6 | 12.9 | 0.00 | 0.00 | 0.00 | 50 | 1008.7 |
| 20260509201020 | 24 | 188 | 4.8 | 14.5 | 0.00 | 0.00 | 0.00 | 49 | 1008.7 |
| 20260509200520 | 23 | 213 | 3.2 | 14.5 | 0.00 | 0.00 | 0.00 | 53 | 1008.7 |
| 20260509200044 | 23 | 328 | 3.2 | 11.3 | 0.00 | 0.00 | 0.00 | 52 | 1008.7 |
| 20260509195527 | 23 | 0 | 0.0 | 8.0 | 0.00 | 0.00 | 0.00 | 52 | 1008.8 |
| 20260509195021 | 23 | 151 | 3.2 | 6.4 | 0.00 | 0.00 | 0.00 | 52 | 1008.9 |
| 20260509194538 | 24 | 200 | 1.6 | 11.3 | 0.00 | 0.00 | 0.00 | 54 | 1009.0 |
| 20260509194022 | 24 | 155 | 3.2 | 12.9 | 0.00 | 0.00 | 0.00 | 53 | 1009.1 |
| 20260509193522 | 23 | 326 | 3.2 | 14.5 | 0.00 | 0.00 | 0.00 | 53 | 1009.1 |
| 20260509193037 | 24 | 0 | 3.2 | 14.5 | 0.00 | 0.00 | 0.00 | 50 | 1009.2 |
| 20260509192520 | 25 | 196 | 3.2 | 14.5 | 0.00 | 0.00 | 0.00 | 49 | 1009.3 |
| 20260509192023 | 24 | 106 | 4.8 | 14.5 | 0.00 | 0.00 | 0.00 | 50 | 1009.2 |
| 20260509191537 | 23 | 118 | 3.2 | 11.3 | 0.00 | 0.00 | 0.00 | 53 | 1009.2 |
| 20260509191019 | 23 | 237 | 3.2 | 14.5 | 0.00 | 0.00 | 0.00 | 52 | 1009.3 |
| 20260509190523 | 24 | 208 | 3.2 | 14.5 | 0.00 | 0.00 | 0.00 | 53 | 1009.5 |
| 20260509190052 | 25 | 297 | 4.8 | 14.5 | 0.00 | 0.00 | 0.00 | 51 | 1009.6 |
| 20260509185522 | 24 | 149 | 3.2 | 11.3 | 0.00 | 0.00 | 0.00 | 51 | 1009.7 |
| 20260509185021 | 25 | 254 | 1.6 | 9.7 | 0.00 | 0.00 | 0.00 | 52 | 1009.8 |
| 20260509184541 | 24 | 230 | 3.2 | 11.3 | 0.00 | 0.00 | 0.00 | 54 | 1009.9 |
| 20260509184021 | 24 | 277 | 3.2 | 12.9 | 0.00 | 0.00 | 0.00 | 55 | 1010.1 |
| 20260509183522 | 23 | 213 | 1.6 | 14.5 | 0.00 | 0.00 | 0.00 | 56 | 1010.2 |
| 20260509183044 | 23 | 158 | 4.8 | 14.5 | 0.00 | 0.00 | 0.00 | 55 | 1010.3 |
| 20260509182522 | 22 | 234 | 3.2 | 11.3 | 0.00 | 0.00 | 0.00 | 55 | 1010.3 |
| 20260509182026 | 22 | 242 | 3.2 | 11.3 | 0.00 | 0.00 | 0.00 | 56 | 1010.4 |
| 20260509181547 | 23 | 190 | 1.6 | 8.0 | 0.00 | 0.00 | 0.00 | 54 | 1010.3 |
| 20260509181020 | 23 | 267 | 1.6 | 12.9 | 0.00 | 0.00 | 0.00 | 52 | 1010.3 |
| 20260509180525 | 24 | 279 | 3.2 | 14.5 | 0.00 | 0.00 | 0.00 | 53 | 1010.3 |
| 20260509180044 | 23 | 271 | 4.8 | 19.3 | 0.00 | 0.00 | 0.00 | 54 | 1010.4 |
| 20260509175522 | 23 | 233 | 1.6 | 19.3 | 0.00 | 0.00 | 0.00 | 54 | 1010.5 |
| 20260509175020 | 23 | 282 | 3.2 | 11.3 | 0.00 | 0.00 | 0.00 | 54 | 1010.4 |
| 20260509174541 | 23 | 240 | 4.8 | 11.3 | 0.00 | 0.00 | 0.00 | 54 | 1010.4 |
| 20260509174021 | 23 | 304 | 3.2 | 11.3 | 0.00 | 0.00 | 0.00 | 55 | 1010.3 |
| 20260509173524 | 22 | 273 | 1.6 | 6.4 | 0.00 | 0.00 | 0.00 | 60 | 1010.5 |
| 20260509173045 | 22 | 0 | 1.6 | 12.9 | 0.00 | 0.00 | 0.00 | 60 | 1010.7 |
| 20260509172521 | 22 | 293 | 1.6 | 14.5 | 0.00 | 0.00 | 0.00 | 59 | 1010.8 |
| 20260509172022 | 22 | 174 | 4.8 | 14.5 | 0.00 | 0.00 | 0.00 | 57 | 1010.9 |
| 20260509171540 | 22 | 5 | 3.2 | 11.3 | 0.00 | 0.00 | 0.00 | 57 | 1010.7 |
| 20260509171019 | 22 | 139 | 1.6 | 9.7 | 0.00 | 0.00 | 0.00 | 57 | 1010.9 |
| 20260509170521 | 22 | 146 | 3.2 | 11.3 | 0.00 | 0.00 | 0.00 | 58 | 1010.8 |
| 20260509170037 | 22 | 264 | 4.8 | 11.3 | 0.00 | 0.00 | 0.00 | 57 | 1010.9 |
| 20260509165521 | 23 | 172 | 3.2 | 8.0 | 0.00 | 0.00 | 0.00 | 56 | 1010.7 |
| 20260509165020 | 22 | 137 | 3.2 | 6.4 | 0.00 | 0.00 | 0.00 | 58 | 1010.8 |
| 20260509164537 | 22 | 186 | 1.6 | 12.9 | 0.00 | 0.00 | 0.00 | 59 | 1011.0 |
| 20260509164020 | 21 | 153 | 0.0 | 12.9 | 0.00 | 0.00 | 0.00 | 61 | 1011.2 |
| 20260509163521 | 21 | 286 | 0.0 | 11.3 | 0.00 | 0.00 | 0.00 | 61 | 1011.1 |
| 20260509163101 | 21 | 223 | 4.8 | 11.3 | 0.00 | 0.00 | 0.00 | 61 | 1011.2 |
| 20260509162521 | 21 | 288 | 4.8 | 14.5 | 0.00 | 0.00 | 0.00 | 61 | 1011.2 |
| 20260509162022 | 21 | 157 | 3.2 | 14.5 | 0.00 | 0.00 | 0.00 | 60 | 1011.1 |
| 20260509161541 | 21 | 272 | 3.2 | 14.5 | 0.00 | 0.00 | 0.00 | 60 | 1011.3 |
| 20260509161020 | 21 | 246 | 4.8 | 14.5 | 0.00 | 0.00 | 0.00 | 60 | 1011.2 |
| 20260509160520 | 22 | 275 | 3.2 | 14.5 | 0.00 | 0.00 | 0.00 | 58 | 1011.3 |
| 20260509160041 | 22 | 247 | 3.2 | 11.3 | 0.00 | 0.00 | 0.00 | 57 | 1011.2 |
| 20260509155520 | 21 | 147 | 1.6 | 9.7 | 0.00 | 0.00 | 0.00 | 63 | 1011.4 |
| 20260509155022 | 21 | 169 | 1.6 | 11.3 | 0.00 | 0.00 | 0.00 | 63 | 1011.3 |
| 20260509154543 | 20 | 198 | 3.2 | 11.3 | 0.00 | 0.00 | 0.00 | 62 | 1011.4 |
| 20260509154023 | 21 | 134 | 1.6 | 9.7 | 0.00 | 0.00 | 0.00 | 61 | 1011.4 |
| 20260509153520 | 20 | 249 | 1.6 | 8.0 | 0.00 | 0.00 | 0.00 | 64 | 1011.5 |
| 20260509153037 | 20 | 224 | 1.6 | 12.9 | 0.00 | 0.00 | 0.00 | 67 | 1011.6 |
| 20260509152520 | 20 | 272 | 1.6 | 12.9 | 0.00 | 0.00 | 0.00 | 66 | 1011.6 |
| 20260509152022 | 19 | 230 | 4.8 | 12.9 | 0.00 | 0.00 | 0.00 | 65 | 1011.7 |
| 20260509151552 | 19 | 262 | 1.6 | 8.0 | 0.00 | 0.00 | 0.00 | 66 | 1011.9 |
| 20260509151020 | 18 | 156 | 1.6 | 12.9 | 0.00 | 0.00 | 0.00 | 67 | 1011.8 |
| 20260509150520 | 18 | 107 | 3.2 | 12.9 | 0.00 | 0.00 | 0.00 | 67 | 1012.0 |
| 20260509150042 | 18 | 259 | 1.6 | 14.5 | 0.00 | 0.00 | 0.00 | 66 | 1012.1 |
| 20260509145522 | 18 | 212 | 3.2 | 14.5 | 0.00 | 0.00 | 0.00 | 67 | 1012.0 |
| 20260509145020 | 18 | 0 | 4.8 | 14.5 | 0.00 | 0.00 | 0.00 | 65 | 1011.9 |
| 20260509144543 | 18 | 295 | 6.4 | 14.5 | 0.00 | 0.00 | 0.00 | 67 | 1012.0 |
| 20260509144019 | 17 | 232 | 1.6 | 14.5 | 0.00 | 0.00 | 0.00 | 69 | 1011.9 |
| 20260509143522 | 17 | 186 | 6.4 | 14.5 | 0.00 | 0.00 | 0.00 | 69 | 1012.1 |
| 20260509143048 | 17 | 128 | 3.2 | 11.3 | 0.00 | 0.00 | 0.00 | 69 | 1012.0 |
| 20260509142520 | 16 | 179 | 1.6 | 12.9 | 0.00 | 0.00 | 0.00 | 69 | 1012.2 |
| 20260509142021 | 16 | 323 | 3.2 | 12.9 | 0.00 | 0.00 | 0.00 | 70 | 1012.4 |
| 20260509141542 | 16 | 167 | 1.6 | 6.4 | 0.00 | 0.00 | 0.00 | 72 | 1012.4 |
| 20260509141021 | 15 | 312 | 1.6 | 4.8 | 0.00 | 0.00 | 0.00 | 71 | 1012.5 |
| 20260509140519 | 15 | 149 | 0.0 | 6.4 | 0.00 | 0.00 | 0.00 | 73 | 1012.5 |
| 20260509140047 | 15 | 286 | 1.6 | 12.9 | 0.00 | 0.00 | 0.00 | 72 | 1012.6 |
| 20260509135520 | 15 | 175 | 3.2 | 12.9 | 0.00 | 0.00 | 0.00 | 72 | 1012.5 |
| 20260509135021 | 14 | 199 | 0.0 | 8.0 | 0.00 | 0.00 | 0.00 | 73 | 1012.5 |
| 20260509134543 | 14 | 329 | 1.6 | 9.7 | 0.00 | 0.00 | 0.00 | 73 | 1012.6 |
| 20260509134022 | 13 | 0 | 1.6 | 9.7 | 0.00 | 0.00 | 0.00 | 74 | 1012.8 |
| 20260509133524 | 13 | 0 | 1.6 | 6.4 | 0.00 | 0.00 | 0.00 | 74 | 1012.7 |
| 20260509133042 | 13 | 53 | 1.6 | 6.4 | 0.00 | 0.00 | 0.00 | 74 | 1012.8 |
| 20260509132519 | 13 | 150 | 1.6 | 8.0 | 0.00 | 0.00 | 0.00 | 74 | 1012.7 |
| 20260509132020 | 13 | 294 | 1.6 | 8.0 | 0.00 | 0.00 | 0.00 | 74 | 1012.7 |
| 20260509131543 | 13 | 199 | 1.6 | 11.3 | 0.00 | 0.00 | 0.00 | 73 | 1012.8 |
| 20260509131025 | 13 | 211 | 3.2 | 11.3 | 0.00 | 0.00 | 0.00 | 74 | 1012.8 |
| 20260509130522 | 13 | 319 | 3.2 | 11.3 | 0.00 | 0.00 | 0.00 | 74 | 1012.8 |
| 20260509130044 | 13 | 174 | 1.6 | 11.3 | 0.00 | 0.00 | 0.00 | 75 | 1012.8 |
| 20260509125519 | 13 | 163 | 3.2 | 14.5 | 0.00 | 0.00 | 0.00 | 75 | 1012.9 |
| 20260509125019 | 12 | 184 | 3.2 | 14.5 | 0.00 | 0.00 | 0.00 | 75 | 1012.9 |
| 20260509124541 | 12 | 0 | 3.2 | 11.3 | 0.00 | 0.00 | 0.00 | 75 | 1012.8 |
| 20260509124019 | 12 | 76 | 1.6 | 11.3 | 0.00 | 0.00 | 0.00 | 76 | 1012.7 |
| 20260509123522 | 12 | 107 | 1.6 | 9.7 | 0.00 | 0.00 | 0.00 | 75 | 1012.9 |
| 20260509123053 | 12 | 104 | 1.6 | 9.7 | 0.00 | 0.00 | 0.00 | 76 | 1012.9 |
| 20260509122519 | 12 | 268 | 0.0 | 11.3 | 0.00 | 0.00 | 0.00 | 76 | 1012.7 |
| 20260509122020 | 12 | 178 | 1.6 | 11.3 | 0.00 | 0.00 | 0.00 | 76 | 1012.7 |
| 20260509121541 | 12 | 117 | 1.6 | 11.3 | 0.00 | 0.00 | 0.00 | 76 | 1012.8 |
| 20260509121022 | 11 | 190 | 3.2 | 12.9 | 0.00 | 0.00 | 0.00 | 76 | 1012.9 |
| 20260509120519 | 11 | 219 | 3.2 | 12.9 | 0.00 | 0.00 | 0.00 | 76 | 1012.9 |
| 20260509120041 | 11 | 242 | 1.6 | 9.7 | 0.00 | 0.00 | 0.00 | 76 | 1012.9 |
| 20260509115519 | 11 | 125 | 3.2 | 9.7 | 0.00 | 0.03 | 0.00 | 77 | 1012.9 |
| 20260509115026 | 11 | 0 | 1.6 | 12.9 | 0.00 | 0.03 | 0.00 | 77 | 1012.9 |
| 20260509114542 | 11 | 170 | 0.0 | 12.9 | 0.00 | 0.03 | 0.00 | 77 | 1012.8 |
| 20260509114020 | 11 | 182 | 1.6 | 8.0 | 0.00 | 0.03 | 0.00 | 77 | 1013.0 |
| 20260509113520 | 11 | 110 | 1.6 | 6.4 | 0.00 | 0.03 | 0.00 | 77 | 1012.9 |
| 20260509113105 | 11 | 109 | 1.6 | 11.3 | 0.00 | 0.03 | 0.00 | 77 | 1012.8 |
| 20260509112519 | 10 | 111 | 1.6 | 11.3 | 0.00 | 0.03 | 0.00 | 78 | 1012.7 |
| 20260509112018 | 10 | 0 | 0.0 | 6.4 | 0.00 | 0.03 | 0.00 | 77 | 1012.7 |
| 20260509111545 | 10 | 178 | 1.6 | 6.4 | 0.00 | 0.03 | 0.00 | 78 | 1012.8 |
| 20260509111019 | 10 | 226 | 1.6 | 4.8 | 0.00 | 0.03 | 0.00 | 78 | 1012.8 |
| 20260509110518 | 10 | 0 | 1.6 | 4.8 | 0.00 | 0.03 | 0.00 | 78 | 1012.9 |
| 20260509110037 | 10 | 165 | 1.6 | 8.0 | 0.00 | 0.03 | 0.00 | 78 | 1012.7 |
| 20260509105519 | 10 | 202 | 0.0 | 11.3 | 0.00 | 0.03 | 0.00 | 79 | 1012.6 |
| 20260509105019 | 9 | 136 | 1.6 | 11.3 | 0.00 | 0.03 | 0.00 | 79 | 1012.6 |
| 20260509104552 | 9 | 0 | 1.6 | 8.0 | 0.00 | 0.03 | 0.00 | 79 | 1012.7 |
| 20260509104019 | 8 | 0 | 0.0 | 4.8 | 0.00 | 0.03 | 0.00 | 80 | 1012.8 |
| 20260509103521 | 8 | 0 | 1.6 | 4.8 | 0.00 | 0.03 | 0.00 | 80 | 1012.8 |
| 20260509103050 | 8 | 0 | 0.0 | 6.4 | 0.00 | 0.03 | 0.00 | 81 | 1012.8 |
| 20260509102519 | 8 | 143 | 0.0 | 6.4 | 0.00 | 0.03 | 0.00 | 81 | 1012.5 |
| 20260509102017 | 8 | 0 | 0.0 | 3.2 | 0.00 | 0.03 | 0.00 | 81 | 1012.5 |
| 20260509101540 | 8 | 0 | 0.0 | 1.6 | 0.00 | 0.03 | 0.00 | 81 | 1012.5 |
| 20260509101021 | 8 | 0 | 0.0 | 4.8 | 0.00 | 0.03 | 0.00 | 81 | 1012.5 |
| 20260509100520 | 8 | 0 | 0.0 | 4.8 | 0.00 | 0.03 | 0.00 | 82 | 1012.5 |
| 20260509100053 | 8 | 0 | 0.0 | 4.8 | 0.00 | 0.03 | 0.00 | 81 | 1012.4 |
| 20260509095520 | 8 | 163 | 0.0 | 4.8 | 0.00 | 0.03 | 0.00 | 82 | 1012.5 |
| 20260509095020 | 8 | 0 | 0.0 | 1.6 | 0.00 | 0.03 | 0.00 | 82 | 1012.5 |
| 20260509094547 | 8 | 0 | 0.0 | 0.0 | 0.00 | 0.03 | 0.00 | 82 | 1012.4 |
| 20260509094019 | 8 | 0 | 0.0 | 0.0 | 0.00 | 0.03 | 0.00 | 82 | 1012.6 |
| 20260509093519 | 8 | 0 | 0.0 | 0.0 | 0.00 | 0.03 | 0.00 | 81 | 1012.6 |
| 20260509093043 | 8 | 0 | 0.0 | 0.0 | 0.00 | 0.03 | 0.00 | 81 | 1012.7 |
| 20260509092518 | 8 | 0 | 0.0 | 0.0 | 0.00 | 0.03 | 0.00 | 80 | 1012.8 |
| 20260509092021 | 8 | 0 | 0.0 | 0.0 | 0.00 | 0.03 | 0.00 | 79 | 1012.8 |
| 20260509091546 | 8 | 0 | 0.0 | 0.0 | 0.00 | 0.03 | 0.00 | 79 | 1012.7 |
| 20260509091017 | 8 | 0 | 0.0 | 0.0 | 0.00 | 0.03 | 0.00 | 79 | 1012.8 |
| 20260509090520 | 8 | 0 | 0.0 | 1.6 | 0.00 | 0.03 | 0.00 | 80 | 1012.8 |
| 20260509090042 | 8 | 0 | 0.0 | 1.6 | 0.00 | 0.03 | 0.00 | 80 | 1012.8 |
| 20260509085517 | 8 | 0 | 0.0 | 1.6 | 0.00 | 0.03 | 0.00 | 79 | 1013.0 |
| 20260509085017 | 8 | 0 | 0.0 | 3.2 | 0.00 | 0.03 | 0.00 | 78 | 1012.9 |
| 20260509084538 | 8 | 0 | 0.0 | 3.2 | 0.00 | 0.03 | 0.00 | 78 | 1013.0 |
| 20260509084021 | 8 | 0 | 0.0 | 3.2 | 0.00 | 0.03 | 0.00 | 77 | 1012.9 |
| 20260509083519 | 8 | 0 | 0.0 | 0.0 | 0.00 | 0.03 | 0.00 | 77 | 1013.0 |
| 20260509083042 | 8 | 0 | 0.0 | 0.0 | 0.00 | 0.03 | 0.00 | 77 | 1013.0 |
| 20260509082544 | 8 | 0 | 0.0 | 1.6 | 0.00 | 0.03 | 0.00 | 76 | 1013.1 |
| 20260509082022 | 8 | 0 | 0.0 | 1.6 | 0.00 | 0.03 | 0.00 | 76 | 1013.2 |